Miscellaneous Local Product
Issued by NWS Hastings, NE

Home | Current Version | Previous Version | Text Only | Print | Product List | Glossary Off
Versions: 1 2 3 4 5 6 7 8 9 10 11 12 13 14 15 16 17 18 19 20 21 22 23 24 25 26 27 28 29 30 31 32 33 34 35 36 37 38 39 40 41 42 43 44 45 46 47 48 49 50

000
AXUS43 KGID 241402
MISGRI

GID CWA HOURLY WEATHER ROUNDUP
NATIONAL WEATHER SERVICE HASTINGS NE
900 AM CDT WED AUG 24 2016

NOTE: "FAIR" INDICATES FEW OR NO CLOUDS BELOW 12,000 FEET WITH NO
SIGNIFICANT WEATHER AND/OR OBSTRUCTIONS TO VISIBILITY.

...SOUTH CENTRAL NEBRASKA...

CITY           SKY/WX    TMP DP  RH WIND       PRES   REMARKS
GRAND ISLAND   MOSUNNY   68  55  63 N10       30.05R
HASTINGS       PTSUNNY   65  57  75 N13       30.03R
KEARNEY        PTSUNNY   64  52  63 N12       30.04R
ORD            CLOUDY    58  51  78 CALM      30.05R
YORK           MOSUNNY   68  61  77 N12       30.01F
AURORA         MOSUNNY   67  62  84 N8        30.02F
LEXINGTON      CLOUDY    59  53  80 NW6       30.08R
HOLDREGE       CLOUDY    63  51  66 N6        30.06R
HEBRON         MOSUNNY   70  66  87 NE7       29.98R

...NEBRASKA PANHANDLE...

CITY           SKY/WX    TMP DP  RH WIND       PRES   REMARKS
CHADRON        CLOUDY    56  39  53 W3        30.20R
ALLIANCE       CLOUDY    53  47  79 W6        30.20R
SCOTTSBLUFF    CLOUDY    59  45  59 E8        30.20R
SIDNEY         CLOUDY    61  44  53 E7        30.22R

...WESTERN AND NORTH CENTRAL NEBRASKA...

CITY           SKY/WX    TMP DP  RH WIND       PRES   REMARKS
VALENTINE      CLOUDY    58  42  55 NW5       30.12R
AINSWORTH      CLOUDY    56  47  71 NW8       30.10R
ONEILL         CLOUDY    60  49  67 CALM      30.06R
BROKEN BOW     CLOUDY    58  51  78 CALM      30.09R
IMPERIAL       CLOUDY    62  45  53 N8        30.13S
NORTH PLATTE   CLOUDY    60  51  72 N3        30.11R
MCCOOK         CLOUDY    61  50  67 NE3       30.07F

...EASTERN NEBRASKA...

CITY           SKY/WX    TMP DP  RH WIND       PRES   REMARKS
NORFOLK        CLOUDY    63  53  70 W6        30.02R
SO SIOUX CITY  CLOUDY    68  59  73 NW7       29.98R
TEKAMAH        PTSUNNY   69  61  75 NW7       29.97R
COLUMBUS       SUNNY     66  54  63 NW5       30.03R
ALBION         CLOUDY    59  52  78 NW5       30.05R
OMAHA EPPLEY   CLOUDY    73  65  75 NW10        N/A
OFFUTT AFB     CLOUDY    71  67  88 NW2       29.96R
MILLARD        PTSUNNY   72  64  75 NW10      29.96S
LINCOLN        PTSUNNY   74  66  76 N10       29.98S
NEBRASKA CITY  PTSUNNY   68  68 100 N3        29.98R
BEATRICE       CLOUDY    70  65  82 NE6       29.98R
FALLS CITY     MOSUNNY   69  66  90 CALM      29.96R

...NORTHERN KANSAS...

CITY           SKY/WX    TMP DP  RH WIND       PRES   REMARKS
GOODLAND       CLOUDY    64  47  53 N7        30.12R
HILL CITY      CLOUDY    68  54  60 N18G26    29.98F
NORTON         SUNNY     64  46  52 N16       30.02F
SMITH CENTER   PTSUNNY   70  64  83 N18       29.99R
BELOIT         SUNNY     72  66  83 N7        29.94R
HAYS           PTSUNNY   72  54  53 N10       30.00R
RUSSELL        CLOUDY    72  61  68 NW7       29.97R
CONCORDIA      MOSUNNY   73  67  81 SE7       29.96R
SALINA         MOSUNNY   79  64  60 S15G24    29.96R
TOPEKA         CLOUDY    78  71  79 S12       29.95R



USA.gov is the U.S. government's official web portal to all federal, state and local government web resources and services.